Regional Weather Roundup
Issued by NWS

Home | Current Version | Previous Version | Graphics & Text | Print | Product List | Glossary On
Versions: 1 2 3 4 5 6 7 8 9 10 11 12 13 14 15 16 17 18 19 20 21 22 23 24 25 26 27 28 29 30 31 32 33 34 35 36 37 38 39 40 41 42 43 44 45 46 47 48 49 50
000
ASUS43 KOAX 260202
RWRNE

WEATHER ROUNDUP FOR NEBRASKA
NATIONAL WEATHER SERVICE OMAHA NE
800 PM CST SUN JAN 25 2015

NOTES: SATELLITE DATA IS BEING USED TO AUGMENT CLOUD COVER ABOVE
       12000 FEET.
       "FAIR" INDICATES FEW OR NO CLOUDS BELOW 12,000 FEET WITH NO
       SIGNIFICANT WEATHER AND/OR OBSTRUCTIONS TO VISIBILITY.

  * THESE STATIONS DO NOT REPORT WEATHER SUCH AS RAIN...SNOW OR FOG.

NEZ001>004-019>022-054>056-260300-
NEBRASKA PANHANDLE

CITY           SKY/WX    TMP DP  RH WIND       PRES   REMARKS
SCOTTSBLUFF    CLEAR     40  32  73 NW9       30.10R WCI  34
ALLIANCE       MOCLDY    36  31  82 W9        30.05R WCI  29
CHADRON        PTCLDY    37  31  78 SW10      30.04R WCI  30
SIDNEY         CLEAR     40  30  67 W14       30.11R WCI  32
$$

NEZ057>060-069>072-079>082-260300-
SOUTHWEST NEBRASKA

CITY           SKY/WX    TMP DP  RH WIND       PRES   REMARKS
NORTH PLATTE   CLOUDY    35  24  64 CALM      30.05R
IMPERIAL       CLOUDY    43  32  65 SW7       30.09R
LEXINGTON      PTCLDY    33  27  77 SE5       30.07R WCI  29
MCCOOK         MOCLDY    41  20  43 SW5       30.08R
$$

NEZ005>010-023>029-035>040-094-260300-
NORTH CENTRAL NEBRASKA

CITY           SKY/WX    TMP DP  RH WIND       PRES   REMARKS
VALENTINE      CLOUDY    36  28  73 SW5       29.99F WCI  32
AINSWORTH      CLOUDY    34  29  84 S6        29.99F WCI  28
BROKEN BOW     PTCLDY    27  23  85 CALM      30.03F
ORD            CLEAR     26  22  84 SW8       30.04F WCI  18
$$

NEZ041-046>049-061>064-073>077-083>087-260300-
SOUTH CENTRAL NEBRASKA

CITY           SKY/WX    TMP DP  RH WIND       PRES   REMARKS
GRAND ISLAND   CLEAR     28  23  81 SW5       30.08S WCI  23
AURORA         CLEAR     31  27  84 SW3       30.06F
HASTINGS       CLEAR     28  22  78 CALM      30.07F
KEARNEY *      CLEAR     30  25  80 SW7       30.08R WCI  23
$$

NEZ011>018-030>034-042>045-260300-
NORTHEAST NEBRASKA

CITY           SKY/WX    TMP DP  RH WIND       PRES   REMARKS
NORFOLK        PTCLDY    30  28  92 SW6       30.05S WCI  24
ALBION         CLEAR     31  28  89 CALM      30.05S
BLAIR          CLOUDY    36  32  87 W3        30.07R
COLUMBUS *     PTCLDY    28  21  74 CALM      30.08S
FREMONT        CLOUDY    36  32  87 CALM      30.07S
TEKAMAH        CLOUDY    36  33  89 CALM      30.08S
$$

NEZ050>053-065>068-078-088>093-260300-
SOUTHEAST NEBRASKA

CITY           SKY/WX    TMP DP  RH WIND       PRES   REMARKS
LINCOLN        MOCLDY    36  30  79 CALM      30.10S
OMAHA EPPLEY   CLOUDY    37  32  82 NW7       30.08S WCI  32
FALLS CITY     CLOUDY    37  27  67 NW6       30.09S WCI  32
$$

NEZ044-045-051>053-067-260300-
OMAHA AREA

CITY           SKY/WX    TMP DP  RH WIND       PRES   REMARKS
OMAHA EPPLEY   CLOUDY    37  32  82 NW7       30.08S WCI  32
BLAIR          CLOUDY    36  32  87 W3        30.07R
FREMONT        CLOUDY    36  32  87 CALM      30.07S
OFFUTT AFB     CLOUDY    37  32  81 W7        30.08S WCI  31
$$



USA.gov is the U.S. government's official web portal to all federal, state and local government web resources and services.